This is the latest recevied weather packets stored in our database for station/object WC4PEM-1. If no packets are shown the sender has not sent any weather packets the latest 10 day(s).
| Time | Temp. | Humidity | Pressure | Rain* | Wind** | Luminosity | Snow |
|---|---|---|---|---|---|---|---|
| 1777205029 | 20° C | 89% | 1011.4 hPa | 0 mm | - | 97 W/m² | - |
| 1777204729 | 20° C | 90% | 1011.4 hPa | 0 mm | - | 111 W/m² | - |
| 1777204429 | 20° C | 89% | 1011.3 hPa | 0 mm | - | 58 W/m² | - |
| 1777204129 | 19.44° C | 90% | 1011.3 hPa | 0 mm | - | 56 W/m² | - |
| 1777203829 | 19.44° C | 90% | 1011.2 hPa | 0 mm | - | 70 W/m² | - |
| 1777203529 | 19.44° C | 90% | 1011.1 hPa | 0 mm | - | 62 W/m² | - |
| 1777203229 | 19.44° C | 90% | 1011 hPa | 0 mm | - | 44 W/m² | - |
| 1777202929 | 18.89° C | 90% | 1010.9 hPa | 0 mm | - | 39 W/m² | - |
| 1777202629 | 18.89° C | 90% | 1010.9 hPa | 0 mm | - | 32 W/m² | - |
| 1777202329 | 18.89° C | 90% | 1010.8 hPa | 0 mm | - | 26 W/m² | - |
| 1777202029 | 18.89° C | 90% | 1010.8 hPa | 0 mm | - | 21 W/m² | - |
| 1777201729 | 18.89° C | 90% | 1010.9 hPa | 0 mm | - | 16 W/m² | - |
| 1777201429 | 18.89° C | 90% | 1011 hPa | 0 mm | - | 12 W/m² | - |
| 1777201129 | 18.89° C | 90% | 1010.9 hPa | 0 mm | - | 7 W/m² | - |
| 1777200829 | 18.89° C | 90% | 1010.8 hPa | 0 mm | - | 0 W/m² | - |
| 1777200529 | 18.89° C | 90% | 1010.6 hPa | 0 mm | - | 0 W/m² | - |
| 1777200229 | 18.89° C | 90% | 1010.4 hPa | 0 mm | - | 0 W/m² | - |
| 1777199929 | 18.89° C | 90% | 1010.3 hPa | 0 mm | - | 0 W/m² | - |
| 1777199629 | 18.89° C | 90% | 1010.3 hPa | 0 mm | - | 0 W/m² | - |
| 1777199330 | 18.89° C | 90% | 1010.2 hPa | 0 mm | - | 0 W/m² | - |
| 1777199029 | 18.89° C | 89% | 1010.3 hPa | 0 mm | - | 0 W/m² | - |
| 1777198729 | 18.89° C | 90% | 1010.3 hPa | 0 mm | - | 0 W/m² | - |
| 1777198429 | 18.89° C | 90% | 1010.2 hPa | 0 mm | - | 0 W/m² | - |
| 1777198129 | 18.89° C | 90% | 1010.2 hPa | 0 mm | - | 0 W/m² | - |
| 1777197829 | 18.89° C | 90% | 1010.1 hPa | 0 mm | - | 0 W/m² | - |
* Rain latest hour (hover to see other rain measurements)
** Current wind speed in m/s (hover to see current wind gust speed)